Wetterdaten: Donnerstag, 25.11.2010
Datum Zeit Temp. A. Feuchte A. Luftdruck Regen Wind Richtung Richtung Sonnenschein UV Solar Windben
25.11.2010 00:00 0,4 C 91 % 1004,3 hPa 0,0 mm 0,0 km/h (0 Bft) N-NO 22 0 min 0 UV-I 0 W/m 6,4 km/h (2 Bft)
25.11.2010 00:10 0,6 C 91 % 1004,1 hPa 0,0 mm 0,0 km/h (0 Bft) N-NO 22 0 min 0 UV-I 0 W/m 1,6 km/h (1 Bft)
25.11.2010 00:20 0,7 C 91 % 1004,1 hPa 0,0 mm 0,0 km/h (0 Bft) N 0 0 min 0 UV-I 0 W/m 0,0 km/h (0 Bft)
25.11.2010 00:30 0,8 C 91 % 1004,0 hPa 0,0 mm 0,0 km/h (0 Bft) N 0 0 min 0 UV-I 0 W/m 0,0 km/h (0 Bft)
25.11.2010 00:40 0,9 C 91 % 1003,9 hPa 0,0 mm 0,0 km/h (0 Bft) N 0 0 min 0 UV-I 0 W/m 0,0 km/h (0 Bft)
25.11.2010 00:50 1,1 C 91 % 1003,9 hPa 0,0 mm 0,0 km/h (0 Bft) N-NO 22 0 min 0 UV-I 0 W/m 1,6 km/h (1 Bft)
25.11.2010 01:00 1,1 C 91 % 1003,8 hPa 0,0 mm 0,0 km/h (0 Bft) N-NO 22 0 min 0 UV-I 0 W/m 1,6 km/h (1 Bft)
25.11.2010 01:10 1,2 C 91 % 1003,8 hPa 0,0 mm 0,0 km/h (0 Bft) N-NO 22 0 min 0 UV-I 0 W/m 1,6 km/h (1 Bft)
25.11.2010 01:20 1,3 C 91 % 1003,7 hPa 0,0 mm 0,0 km/h (0 Bft) N-NO 22 0 min 0 UV-I 0 W/m 1,6 km/h (1 Bft)
25.11.2010 01:30 1,3 C 91 % 1003,7 hPa 0,0 mm 0,0 km/h (0 Bft) N-NO 22 0 min 0 UV-I 0 W/m 1,6 km/h (1 Bft)
25.11.2010 01:40 1,4 C 91 % 1003,7 hPa 0,0 mm 0,0 km/h (0 Bft) N 0 0 min 0 UV-I 0 W/m 0,0 km/h (0 Bft)
25.11.2010 01:50 1,4 C 91 % 1003,7 hPa 0,0 mm 0,0 km/h (0 Bft) N 0 0 min 0 UV-I 0 W/m 0,0 km/h (0 Bft)
25.11.2010 02:00 1,4 C 91 % 1003,5 hPa 0,0 mm 0,0 km/h (0 Bft) N 0 0 min 0 UV-I 0 W/m 0,0 km/h (0 Bft)
25.11.2010 02:10 1,4 C 91 % 1003,5 hPa 0,0 mm 0,0 km/h (0 Bft) N 0 0 min 0 UV-I 0 W/m 0,0 km/h (0 Bft)
25.11.2010 02:20 1,4 C 91 % 1003,7 hPa 0,0 mm 0,0 km/h (0 Bft) N 0 0 min 0 UV-I 0 W/m 0,0 km/h (0 Bft)
25.11.2010 02:30 1,4 C 91 % 1003,7 hPa 0,0 mm 0,0 km/h (0 Bft) N 0 0 min 0 UV-I 0 W/m 0,0 km/h (0 Bft)
25.11.2010 02:40 1,4 C 91 % 1003,7 hPa 0,0 mm 0,0 km/h (0 Bft) N 0 0 min 0 UV-I 0 W/m 0,0 km/h (0 Bft)
25.11.2010 02:50 1,5 C 91 % 1003,6 hPa 0,0 mm 0,0 km/h (0 Bft) N 0 0 min 0 UV-I 0 W/m 0,0 km/h (0 Bft)
25.11.2010 03:00 1,6 C 91 % 1003,6 hPa 0,0 mm 0,0 km/h (0 Bft) N 0 0 min 0 UV-I 0 W/m 0,0 km/h (0 Bft)
25.11.2010 03:10 1,6 C 92 % 1003,6 hPa 0,0 mm 0,0 km/h (0 Bft) N-NO 22 0 min 0 UV-I 0 W/m 1,6 km/h (1 Bft)
25.11.2010 03:20 1,7 C 92 % 1003,6 hPa 0,0 mm 0,0 km/h (0 Bft) N-NO 22 0 min 0 UV-I 0 W/m 3,2 km/h (1 Bft)
25.11.2010 03:30 1,8 C 92 % 1003,6 hPa 0,0 mm 0,0 km/h (0 Bft) N-NO 22 0 min 0 UV-I 0 W/m 3,2 km/h (1 Bft)
25.11.2010 03:40 1,9 C 92 % 1003,6 hPa 0,3 mm 0,0 km/h (0 Bft) N-NO 22 0 min 0 UV-I 0 W/m 3,2 km/h (1 Bft)
25.11.2010 03:50 2,0 C 92 % 1003,5 hPa 0,0 mm 0,0 km/h (0 Bft) N-NO 22 0 min 0 UV-I 0 W/m 1,6 km/h (1 Bft)
25.11.2010 04:00 2,1 C 92 % 1003,5 hPa 0,0 mm 0,0 km/h (0 Bft) N-NO 22 0 min 0 UV-I 0 W/m 1,6 km/h (1 Bft)
25.11.2010 04:10 2,1 C 92 % 1003,3 hPa 0,0 mm 0,0 km/h (0 Bft) N-NO 22 0 min 0 UV-I 0 W/m 1,6 km/h (1 Bft)
25.11.2010 04:20 2,2 C 92 % 1003,2 hPa 0,0 mm 0,0 km/h (0 Bft) N-NO 22 0 min 0 UV-I 0 W/m 1,6 km/h (1 Bft)
25.11.2010 04:30 2,2 C 92 % 1003,1 hPa 0,0 mm 0,0 km/h (0 Bft) N-NO 22 0 min 0 UV-I 0 W/m 1,6 km/h (1 Bft)
25.11.2010 04:40 2,2 C 92 % 1003,0 hPa 0,0 mm 0,0 km/h (0 Bft) N-NO 22 0 min 0 UV-I 0 W/m 1,6 km/h (1 Bft)
25.11.2010 04:50 2,2 C 92 % 1002,9 hPa 0,0 mm 0,0 km/h (0 Bft) N-NO 22 0 min 0 UV-I 0 W/m 1,6 km/h (1 Bft)
25.11.2010 05:00 2,2 C 92 % 1002,8 hPa 0,0 mm 0,0 km/h (0 Bft) N 0 0 min 0 UV-I 0 W/m 0,0 km/h (0 Bft)
25.11.2010 05:10 2,1 C 92 % 1002,8 hPa 0,0 mm 0,0 km/h (0 Bft) N 0 0 min 0 UV-I 0 W/m 0,0 km/h (0 Bft)
25.11.2010 05:20 1,9 C 91 % 1002,7 hPa 0,0 mm 0,0 km/h (0 Bft) N 0 0 min 0 UV-I 0 W/m 0,0 km/h (0 Bft)
25.11.2010 05:30 1,8 C 91 % 1002,7 hPa 0,0 mm 0,0 km/h (0 Bft) N-NO 22 0 min 0 UV-I 0 W/m 1,6 km/h (1 Bft)
25.11.2010 05:40 1,7 C 91 % 1002,7 hPa 0,0 mm 0,0 km/h (0 Bft) N 0 0 min 0 UV-I 0 W/m 0,0 km/h (0 Bft)
25.11.2010 05:50 1,6 C 91 % 1002,7 hPa 0,0 mm 0,0 km/h (0 Bft) N 0 0 min 0 UV-I 0 W/m 0,0 km/h (0 Bft)
25.11.2010 06:00 1,4 C 91 % 1002,6 hPa 0,0 mm 0,0 km/h (0 Bft) N 0 0 min 0 UV-I 0 W/m 0,0 km/h (0 Bft)
25.11.2010 06:10 1,4 C 91 % 1002,5 hPa 0,0 mm 0,0 km/h (0 Bft) N 0 0 min 0 UV-I 0 W/m 0,0 km/h (0 Bft)
25.11.2010 06:20 1,4 C 91 % 1002,6 hPa 0,0 mm 0,0 km/h (0 Bft) N 0 0 min 0 UV-I 0 W/m 0,0 km/h (0 Bft)
25.11.2010 06:30 1,4 C 92 % 1002,5 hPa 0,0 mm 0,0 km/h (0 Bft) N 0 0 min 0 UV-I 0 W/m 0,0 km/h (0 Bft)
25.11.2010 06:40 1,4 C 92 % 1002,6 hPa 0,0 mm 0,0 km/h (0 Bft) N 0 0 min 0 UV-I 0 W/m 0,0 km/h (0 Bft)
25.11.2010 06:50 1,4 C 92 % 1002,7 hPa 0,0 mm 0,0 km/h (0 Bft) N 0 0 min 0 UV-I 0 W/m 0,0 km/h (0 Bft)
25.11.2010 07:00 1,4 C 92 % 1002,6 hPa 0,0 mm 0,0 km/h (0 Bft) N 0 0 min 0 UV-I 0 W/m 0,0 km/h (0 Bft)
25.11.2010 07:10 1,4 C 92 % 1002,5 hPa 0,0 mm 0,0 km/h (0 Bft) N 0 0 min 0 UV-I 0 W/m 0,0 km/h (0 Bft)
25.11.2010 07:20 1,5 C 92 % 1002,6 hPa 0,3 mm 0,0 km/h (0 Bft) N 0 0 min 0 UV-I 0 W/m 0,0 km/h (0 Bft)
25.11.2010 07:30 1,6 C 92 % 1002,5 hPa 0,0 mm 0,0 km/h (0 Bft) N-NO 22 0 min 0 UV-I 0 W/m 1,6 km/h (1 Bft)
25.11.2010 07:40 1,6 C 92 % 1002,6 hPa 0,0 mm 0,0 km/h (0 Bft) N 0 0 min 0 UV-I 0 W/m 0,0 km/h (0 Bft)
25.11.2010 07:50 1,6 C 92 % 1002,6 hPa 0,0 mm 0,0 km/h (0 Bft) N 0 0 min 0 UV-I 0 W/m 0,0 km/h (0 Bft)
25.11.2010 08:00 1,7 C 92 % 1002,6 hPa 0,0 mm 0,0 km/h (0 Bft) N 0 0 min 0 UV-I 0 W/m 0,0 km/h (0 Bft)
25.11.2010 08:10 1,7 C 92 % 1002,6 hPa 0,0 mm 0,0 km/h (0 Bft) N-NO 22 0 min 0 UV-I 0 W/m 1,6 km/h (1 Bft)
25.11.2010 08:20 1,7 C 92 % 1002,8 hPa 0,3 mm 0,0 km/h (0 Bft) N-NO 22 0 min 0 UV-I 0 W/m 3,2 km/h (1 Bft)
25.11.2010 08:30 1,7 C 92 % 1002,8 hPa 0,0 mm 0,0 km/h (0 Bft) N-NO 17 0 min 0 UV-I 0 W/m 1,6 km/h (1 Bft)
25.11.2010 08:40 1,7 C 92 % 1002,8 hPa 0,0 mm 0,0 km/h (0 Bft) N-NO 22 0 min 0 UV-I 0 W/m 1,6 km/h (1 Bft)
25.11.2010 08:50 1,7 C 92 % 1002,7 hPa 0,0 mm 0,0 km/h (0 Bft) N-NO 22 0 min 0 UV-I 0 W/m 1,6 km/h (1 Bft)
25.11.2010 09:00 1,6 C 92 % 1002,7 hPa 0,3 mm 0,0 km/h (0 Bft) N-NO 22 0 min 0 UV-I 0 W/m 1,6 km/h (1 Bft)
25.11.2010 09:10 1,6 C 92 % 1002,5 hPa 0,0 mm 0,0 km/h (0 Bft) N-NO 22 0 min 0 UV-I 0 W/m 1,6 km/h (1 Bft)
25.11.2010 09:20 1,4 C 92 % 1002,5 hPa 0,0 mm 0,0 km/h (0 Bft) N-NO 22 0 min 0 UV-I 0 W/m 1,6 km/h (1 Bft)
25.11.2010 09:30 1,4 C 92 % 1002,5 hPa 0,3 mm 0,0 km/h (0 Bft) N 0 0 min 0 UV-I 0 W/m 0,0 km/h (0 Bft)
25.11.2010 09:40 1,4 C 92 % 1002,5 hPa 0,0 mm 0,0 km/h (0 Bft) N-NO 22 0 min 0 UV-I 7 W/m 1,6 km/h (1 Bft)
25.11.2010 09:50 1,4 C 92 % 1002,4 hPa 0,0 mm 0,0 km/h (0 Bft) N 0 0 min 0 UV-I 11 W/m 0,0 km/h (0 Bft)
25.11.2010 10:00 1,4 C 92 % 1002,4 hPa 0,0 mm 0,0 km/h (0 Bft) N 0 0 min 0 UV-I 21 W/m 0,0 km/h (0 Bft)
25.11.2010 10:10 1,4 C 92 % 1002,5 hPa 0,3 mm 0,0 km/h (0 Bft) N-NO 22 0 min 0 UV-I 28 W/m 1,6 km/h (1 Bft)
25.11.2010 10:20 1,4 C 92 % 1002,6 hPa 0,3 mm 0,0 km/h (0 Bft) N 0 0 min 0 UV-I 23 W/m 0,0 km/h (0 Bft)
25.11.2010 10:30 1,4 C 92 % 1002,5 hPa 0,0 mm 0,0 km/h (0 Bft) N 0 0 min 0 UV-I 26 W/m 0,0 km/h (0 Bft)
25.11.2010 10:40 1,4 C 92 % 1002,4 hPa 0,0 mm 0,0 km/h (0 Bft) N-NO 22 0 min 0 UV-I 42 W/m 1,6 km/h (1 Bft)
25.11.2010 10:50 1,4 C 92 % 1002,4 hPa 0,0 mm 0,0 km/h (0 Bft) N-NO 22 0 min 0 UV-I 58 W/m 1,6 km/h (1 Bft)
25.11.2010 11:00 1,4 C 92 % 1002,5 hPa 0,3 mm 0,0 km/h (0 Bft) N-NO 22 0 min 0 UV-I 44 W/m 1,6 km/h (1 Bft)
25.11.2010 11:10 1,5 C 92 % 1002,4 hPa 0,0 mm 0,0 km/h (0 Bft) N 0 0 min 0 UV-I 33 W/m 0,0 km/h (0 Bft)
25.11.2010 11:20 1,7 C 92 % 1002,4 hPa 0,0 mm 0,0 km/h (0 Bft) N 0 0 min 0 UV-I 26 W/m 0,0 km/h (0 Bft)
25.11.2010 11:30 1,8 C 92 % 1002,2 hPa 0,0 mm 0,0 km/h (0 Bft) N-NO 22 0 min 0 UV-I 54 W/m 1,6 km/h (1 Bft)
25.11.2010 11:40 1,9 C 92 % 1002,2 hPa 0,0 mm 0,0 km/h (0 Bft) N-NO 22 0 min 0 UV-I 69 W/m 1,6 km/h (1 Bft)
25.11.2010 11:50 2,0 C 92 % 1002,2 hPa 0,0 mm 0,0 km/h (0 Bft) N-NO 22 0 min 0 UV-I 69 W/m 3,2 km/h (1 Bft)
25.11.2010 12:00 2,1 C 92 % 1002,2 hPa 0,0 mm 0,0 km/h (0 Bft) N-NO 22 0 min 0 UV-I 72 W/m 4,8 km/h (1 Bft)
25.11.2010 12:10 2,2 C 92 % 1002,2 hPa 0,0 mm 0,0 km/h (0 Bft) N-NO 22 0 min 0 UV-I 107 W/m 4,8 km/h (1 Bft)
25.11.2010 12:20 2,2 C 92 % 1002,1 hPa 0,0 mm 0,0 km/h (0 Bft) N-NO 22 0 min 0 UV-I 77 W/m 3,2 km/h (1 Bft)
25.11.2010 12:30 2,3 C 92 % 1002,0 hPa 0,0 mm 0,0 km/h (0 Bft) N-NO 22 0 min 0 UV-I 81 W/m 1,6 km/h (1 Bft)
25.11.2010 12:40 2,4 C 92 % 1002,0 hPa 0,0 mm 0,0 km/h (0 Bft) N-NO 22 0 min 0 UV-I 84 W/m 1,6 km/h (1 Bft)
25.11.2010 12:50 2,5 C 92 % 1002,0 hPa 0,0 mm 0,0 km/h (0 Bft) N-NO 22 0 min 0 UV-I 100 W/m 3,2 km/h (1 Bft)
25.11.2010 13:00 2,6 C 92 % 1002,0 hPa 0,0 mm 0,0 km/h (0 Bft) N-NO 22 0 min 0 UV-I 69 W/m 3,2 km/h (1 Bft)
25.11.2010 13:10 2,7 C 92 % 1001,9 hPa 0,0 mm 0,0 km/h (0 Bft) N-NO 22 0 min 0 UV-I 70 W/m 1,6 km/h (1 Bft)
25.11.2010 13:20 2,7 C 92 % 1001,7 hPa 0,3 mm 0,0 km/h (0 Bft) N-NO 22 0 min 0 UV-I 77 W/m 1,6 km/h (1 Bft)
25.11.2010 13:30 2,8 C 92 % 1001,8 hPa 0,0 mm 0,0 km/h (0 Bft) N-NO 22 0 min 0 UV-I 123 W/m 1,6 km/h (1 Bft)
25.11.2010 13:40 2,8 C 92 % 1001,6 hPa 0,0 mm 0,0 km/h (0 Bft) N-NO 22 0 min 0 UV-I 98 W/m 1,6 km/h (1 Bft)
25.11.2010 13:50 2,9 C 92 % 1001,6 hPa 0,0 mm 0,0 km/h (0 Bft) N-NO 22 0 min 0 UV-I 51 W/m 1,6 km/h (1 Bft)
25.11.2010 14:00 2,9 C 92 % 1001,6 hPa 0,0 mm 0,0 km/h (0 Bft) N-NO 22 0 min 0 UV-I 53 W/m 1,6 km/h (1 Bft)
25.11.2010 14:10 2,9 C 92 % 1001,6 hPa 0,0 mm 0,0 km/h (0 Bft) N-NO 22 0 min 0 UV-I 76 W/m 1,6 km/h (1 Bft)
25.11.2010 14:20 3,0 C 93 % 1001,4 hPa 0,0 mm 0,0 km/h (0 Bft) N 0 0 min 0 UV-I 76 W/m 0,0 km/h (0 Bft)
25.11.2010 14:30 3,1 C 93 % 1001,3 hPa 0,0 mm 0,0 km/h (0 Bft) N 0 0 min 0 UV-I 54 W/m 0,0 km/h (0 Bft)
25.11.2010 14:40 3,1 C 92 % 1001,3 hPa 0,0 mm 0,0 km/h (0 Bft) N 0 0 min 0 UV-I 39 W/m 0,0 km/h (0 Bft)
25.11.2010 14:50 3,1 C 92 % 1001,2 hPa 0,0 mm 0,0 km/h (0 Bft) N 0 0 min 0 UV-I 49 W/m 0,0 km/h (0 Bft)
25.11.2010 15:00 3,2 C 92 % 1001,2 hPa 0,0 mm 0,0 km/h (0 Bft) N-NO 22 0 min 0 UV-I 49 W/m 3,2 km/h (1 Bft)
25.11.2010 15:10 3,2 C 92 % 1001,1 hPa 0,0 mm 1,6 km/h (1 Bft) N-NO 22 0 min 0 UV-I 39 W/m 6,4 km/h (2 Bft)
25.11.2010 15:20 3,2 C 92 % 1001,1 hPa 0,0 mm 0,0 km/h (0 Bft) N-NO 22 0 min 0 UV-I 16 W/m 1,6 km/h (1 Bft)
25.11.2010 15:30 3,2 C 92 % 1001,1 hPa 0,0 mm 0,0 km/h (0 Bft) N-NO 22 0 min 0 UV-I 5 W/m 4,8 km/h (1 Bft)
25.11.2010 15:40 3,1 C 92 % 1001,2 hPa 0,0 mm 0,0 km/h (0 Bft) N-NO 22 0 min 0 UV-I 0 W/m 3,2 km/h (1 Bft)
25.11.2010 15:50 3,1 C 92 % 1001,3 hPa 0,0 mm 0,0 km/h (0 Bft) N-NO 22 0 min 0 UV-I 0 W/m 4,8 km/h (1 Bft)
25.11.2010 16:00 2,9 C 92 % 1001,3 hPa 0,0 mm 0,5 km/h (0 Bft) N-NO 18 0 min 0 UV-I 0 W/m 4,8 km/h (1 Bft)
25.11.2010 16:10 2,8 C 92 % 1001,3 hPa 0,0 mm 0,0 km/h (0 Bft) N-NO 22 0 min 0 UV-I 0 W/m 1,6 km/h (1 Bft)
25.11.2010 16:20 2,6 C 92 % 1001,3 hPa 0,0 mm 0,0 km/h (0 Bft) N-NO 22 0 min 0 UV-I 0 W/m 1,6 km/h (1 Bft)
25.11.2010 16:30 2,3 C 91 % 1001,2 hPa 0,0 mm 0,0 km/h (0 Bft) N 0 0 min 0 UV-I 0 W/m 0,0 km/h (0 Bft)
25.11.2010 16:40 2,0 C 91 % 1001,3 hPa 0,0 mm 0,0 km/h (0 Bft) N-NO 22 0 min 0 UV-I 0 W/m 1,6 km/h (1 Bft)
25.11.2010 16:50 1,8 C 91 % 1001,2 hPa 0,0 mm 0,0 km/h (0 Bft) N-NO 22 0 min 0 UV-I 0 W/m 1,6 km/h (1 Bft)
25.11.2010 17:00 1,6 C 91 % 1001,2 hPa 0,0 mm 0,0 km/h (0 Bft) N 0 0 min 0 UV-I 0 W/m 0,0 km/h (0 Bft)
25.11.2010 17:10 1,4 C 91 % 1001,1 hPa 0,0 mm 0,0 km/h (0 Bft) N-NO 22 0 min 0 UV-I 0 W/m 1,6 km/h (1 Bft)
25.11.2010 17:20 1,4 C 91 % 1001,2 hPa 0,3 mm 0,0 km/h (0 Bft) N 0 0 min 0 UV-I 0 W/m 0,0 km/h (0 Bft)
25.11.2010 17:30 1,3 C 91 % 1001,3 hPa 0,0 mm 0,0 km/h (0 Bft) N 0 0 min 0 UV-I 0 W/m 0,0 km/h (0 Bft)
25.11.2010 17:40 1,2 C 91 % 1001,4 hPa 0,0 mm 0,0 km/h (0 Bft) N 0 0 min 0 UV-I 0 W/m 0,0 km/h (0 Bft)
25.11.2010 17:50 1,1 C 91 % 1001,4 hPa 0,0 mm 0,0 km/h (0 Bft) N 0 0 min 0 UV-I 0 W/m 0,0 km/h (0 Bft)
25.11.2010 18:00 1,0 C 91 % 1001,2 hPa 0,0 mm 0,0 km/h (0 Bft) N 0 0 min 0 UV-I 0 W/m 0,0 km/h (0 Bft)
25.11.2010 18:10 0,9 C 91 % 1001,1 hPa 0,0 mm 0,0 km/h (0 Bft) N 0 0 min 0 UV-I 0 W/m 0,0 km/h (0 Bft)
25.11.2010 18:20 0,9 C 91 % 1001,0 hPa 0,3 mm 0,0 km/h (0 Bft) N 0 0 min 0 UV-I 0 W/m 0,0 km/h (0 Bft)
25.11.2010 18:30 0,9 C 91 % 1001,1 hPa 0,0 mm 0,0 km/h (0 Bft) N 0 0 min 0 UV-I 0 W/m 0,0 km/h (0 Bft)
25.11.2010 18:40 0,8 C 91 % 1001,2 hPa 0,0 mm 0,0 km/h (0 Bft) N 0 0 min 0 UV-I 0 W/m 0,0 km/h (0 Bft)
25.11.2010 18:50 0,8 C 91 % 1001,2 hPa 0,0 mm 0,0 km/h (0 Bft) N 0 0 min 0 UV-I 0 W/m 0,0 km/h (0 Bft)
25.11.2010 19:00 0,8 C 91 % 1001,1 hPa 0,0 mm 0,0 km/h (0 Bft) N 0 0 min 0 UV-I 0 W/m 0,0 km/h (0 Bft)
25.11.2010 19:10 0,8 C 91 % 1001,2 hPa 0,0 mm 0,0 km/h (0 Bft) N 0 0 min 0 UV-I 0 W/m 0,0 km/h (0 Bft)
25.11.2010 19:20 0,8 C 91 % 1001,3 hPa 0,0 mm 0,0 km/h (0 Bft) N 0 0 min 0 UV-I 0 W/m 0,0 km/h (0 Bft)
25.11.2010 19:30 0,7 C 91 % 1001,3 hPa 0,0 mm 0,0 km/h (0 Bft) N 0 0 min 0 UV-I 0 W/m 0,0 km/h (0 Bft)
25.11.2010 19:40 0,7 C 91 % 1001,3 hPa 0,0 mm 0,0 km/h (0 Bft) N 0 0 min 0 UV-I 0 W/m 0,0 km/h (0 Bft)
25.11.2010 19:50 0,7 C 91 % 1001,3 hPa 0,0 mm 0,0 km/h (0 Bft) N 0 0 min 0 UV-I 0 W/m 0,0 km/h (0 Bft)
25.11.2010 20:00 0,7 C 91 % 1001,2 hPa 0,0 mm 0,0 km/h (0 Bft) N 0 0 min 0 UV-I 0 W/m 0,0 km/h (0 Bft)
25.11.2010 20:10 0,8 C 91 % 1001,2 hPa 0,3 mm 0,0 km/h (0 Bft) N 0 0 min 0 UV-I 0 W/m 0,0 km/h (0 Bft)
25.11.2010 20:20 0,8 C 91 % 1001,2 hPa 0,0 mm 0,0 km/h (0 Bft) N 0 0 min 0 UV-I 0 W/m 0,0 km/h (0 Bft)
25.11.2010 20:30 0,8 C 91 % 1001,2 hPa 0,0 mm 0,0 km/h (0 Bft) N 0 0 min 0 UV-I 0 W/m 0,0 km/h (0 Bft)
25.11.2010 20:40 0,8 C 91 % 1001,2 hPa 0,0 mm 0,0 km/h (0 Bft) N 0 0 min 0 UV-I 0 W/m 0,0 km/h (0 Bft)
25.11.2010 20:50 0,8 C 91 % 1001,2 hPa 0,0 mm 0,0 km/h (0 Bft) N 0 0 min 0 UV-I 0 W/m 0,0 km/h (0 Bft)
25.11.2010 21:00 0,8 C 91 % 1001,2 hPa 0,0 mm 0,0 km/h (0 Bft) N 0 0 min 0 UV-I 0 W/m 0,0 km/h (0 Bft)
25.11.2010 21:10 0,8 C 91 % 1001,2 hPa 0,0 mm 0,0 km/h (0 Bft) N 0 0 min 0 UV-I 0 W/m 0,0 km/h (0 Bft)
25.11.2010 21:20 0,8 C 91 % 1001,3 hPa 0,0 mm 0,0 km/h (0 Bft) N-NO 22 0 min 0 UV-I 0 W/m 1,6 km/h (1 Bft)
25.11.2010 21:30 0,8 C 91 % 1001,3 hPa 0,0 mm 0,0 km/h (0 Bft) N-NO 22 0 min 0 UV-I 0 W/m 4,8 km/h (1 Bft)
25.11.2010 21:40 0,9 C 92 % 1001,4 hPa 0,0 mm 0,0 km/h (0 Bft) N-NO 22 0 min 0 UV-I 0 W/m 4,8 km/h (1 Bft)
25.11.2010 21:50 0,9 C 92 % 1001,4 hPa 0,0 mm 0,0 km/h (0 Bft) N-NO 22 0 min 0 UV-I 0 W/m 6,4 km/h (2 Bft)
25.11.2010 22:00 0,9 C 92 % 1001,5 hPa 0,0 mm 1,6 km/h (1 Bft) N-NO 22 0 min 0 UV-I 0 W/m 6,4 km/h (2 Bft)
25.11.2010 22:10 0,9 C 92 % 1001,5 hPa 0,3 mm 0,0 km/h (0 Bft) N-NO 22 0 min 0 UV-I 0 W/m 3,2 km/h (1 Bft)
25.11.2010 22:20 0,9 C 92 % 1001,5 hPa 0,0 mm 0,0 km/h (0 Bft) N-NO 22 0 min 0 UV-I 0 W/m 4,8 km/h (1 Bft)
25.11.2010 22:30 0,9 C 92 % 1001,6 hPa 0,0 mm 0,0 km/h (0 Bft) N-NO 22 0 min 0 UV-I 0 W/m 6,4 km/h (2 Bft)
25.11.2010 22:40 0,9 C 92 % 1001,6 hPa 0,0 mm 0,0 km/h (0 Bft) N-NO 22 0 min 0 UV-I 0 W/m 4,8 km/h (1 Bft)
25.11.2010 22:50 0,9 C 92 % 1001,6 hPa 0,0 mm 0,0 km/h (0 Bft) N-NO 22 0 min 0 UV-I 0 W/m 4,8 km/h (1 Bft)
25.11.2010 23:00 0,9 C 92 % 1001,6 hPa 0,0 mm 0,0 km/h (0 Bft) N-NO 22 0 min 0 UV-I 0 W/m 4,8 km/h (1 Bft)
25.11.2010 23:10 0,9 C 92 % 1001,6 hPa 0,0 mm 0,0 km/h (0 Bft) N-NO 22 0 min 0 UV-I 0 W/m 4,8 km/h (1 Bft)
25.11.2010 23:20 0,9 C 92 % 1001,6 hPa 0,0 mm 0,0 km/h (0 Bft) N-NO 22 0 min 0 UV-I 0 W/m 4,8 km/h (1 Bft)
25.11.2010 23:30 0,9 C 92 % 1001,6 hPa 0,0 mm 0,0 km/h (0 Bft) N-NO 22 0 min 0 UV-I 0 W/m 4,8 km/h (1 Bft)
25.11.2010 23:40 0,9 C 92 % 1001,6 hPa 0,0 mm 1,6 km/h (1 Bft) N-NO 22 0 min 0 UV-I 0 W/m 8,0 km/h (2 Bft)
25.11.2010 23:50 0,9 C 92 % 1001,6 hPa 0,0 mm 0,0 km/h (0 Bft) N-NO 22 0 min 0 UV-I 0 W/m 4,8 km/h (1 Bft)
_ Min-Zeit 00:00 00:00 18:20 - 00:00 - - - - - 00:20
Minimum _ 0,6 C 91 % 1001,0 hPa - 0,0 km/h (0 Bft) - - - - - 0,0 km/h (0 Bft)
_ Max-Zeit 15:00 14:20 00:00 03:40 15:10 - - 00:00 00:00 13:30 23:40
Maximum _ 3,2 C 93 % 1004,3 hPa 0,3 mm 1,6 km/h
N-NO (1 Bft)
- - 0 min 0 UV-I 123 W/m 8,0 km/h
N-NO (2 Bft)
Durchschnitt _ 1,6 C 92 % 1002,2 hPa #3,3 mm 0,0 km/h (0 Bft) N-NO - #0 min. 0 UV-I 55 W/m 1,5 km/h (1 Bft)